Time,TemperatureF,DewpointF,PressureIn,WindDirection,WindDirectionDegrees,WindSpeedMPH,WindSpeedGustMPH,Humidity,HourlyPrecipIn,Conditions,Clouds,dailyrainin,SoftwareType,DateUTC
2013-03-08 00:01:00,41.0,32.0,30.04,East,100,10.0,-999.0,70,-99.99,,,-99.99,,2013-03-08 06:01:00,
2013-03-08 00:11:00,41.0,32.0,30.04,East,100,10.0,-999.0,70,-99.99,,,-99.99,,2013-03-08 06:11:00,
2013-03-08 00:21:00,39.0,32.0,30.04,East,100,10.0,-999.0,75,-99.99,,,-99.99,,2013-03-08 06:21:00,
2013-03-08 00:32:00,39.0,32.0,30.04,East,100,9.0,-999.0,75,-99.99,,,-99.99,,2013-03-08 06:32:00,
2013-03-08 00:42:00,39.0,32.0,30.04,East,100,9.0,-999.0,75,-99.99,,,-99.99,,2013-03-08 06:42:00,
2013-03-08 00:52:00,39.0,32.0,30.04,ESE,110,8.0,-999.0,75,-99.99,,,-99.99,,2013-03-08 06:52:00,
2013-03-08 01:01:00,39.0,32.0,30.04,ESE,110,8.0,-999.0,75,-99.99,,,-99.99,,2013-03-08 07:01:00,
2013-03-08 01:11:00,39.0,32.0,30.04,ESE,110,8.0,-999.0,75,-99.99,,,-99.99,,2013-03-08 07:11:00,
2013-03-08 01:21:00,39.0,32.0,30.04,East,100,8.0,-999.0,75,-99.99,,,-99.99,,2013-03-08 07:21:00,
2013-03-08 01:31:00,39.0,32.0,30.04,East,90,8.0,-999.0,75,-99.99,,,-99.99,,2013-03-08 07:31:00,
2013-03-08 01:42:00,39.0,32.0,30.04,East,90,8.0,-999.0,75,-99.99,,,-99.99,,2013-03-08 07:42:00,
2013-03-08 01:52:00,39.0,32.0,30.04,East,90,8.0,-999.0,75,-99.99,,,-99.99,,2013-03-08 07:52:00,
2013-03-08 02:01:00,39.0,32.0,30.04,East,90,8.0,-999.0,75,-99.99,,,-99.99,,2013-03-08 08:01:00,
2013-03-08 02:11:00,39.0,32.0,30.04,East,90,8.0,-999.0,75,-99.99,,,-99.99,,2013-03-08 08:11:00,
2013-03-08 02:21:00,37.0,32.0,30.05,East,80,7.0,-999.0,80,-99.99,,,-99.99,,2013-03-08 08:21:00,
2013-03-08 02:32:00,37.0,30.0,30.05,ENE,70,6.0,-999.0,74,-99.99,,,-99.99,,2013-03-08 08:32:00,
2013-03-08 02:42:00,37.0,30.0,30.05,ENE,70,6.0,-999.0,74,-99.99,,,-99.99,,2013-03-08 08:42:00,
2013-03-08 02:52:00,37.0,30.0,30.04,ENE,70,7.0,-999.0,74,-99.99,,,-99.99,,2013-03-08 08:52:00,
2013-03-08 03:03:00,37.0,30.0,30.04,ENE,70,7.0,-999.0,74,-99.99,,,-99.99,,2013-03-08 09:03:00,
2013-03-08 03:11:00,37.0,30.0,30.04,ENE,70,7.0,-999.0,74,-99.99,,,-99.99,,2013-03-08 09:11:00,
2013-03-08 03:21:00,37.0,30.0,30.03,East,80,7.0,-999.0,74,-99.99,,,-99.99,,2013-03-08 09:21:00,
2013-03-08 03:32:00,37.0,30.0,30.03,East,80,7.0,-999.0,74,-99.99,,,-99.99,,2013-03-08 09:32:00,
2013-03-08 03:42:00,37.0,30.0,30.03,East,80,7.0,-999.0,74,-99.99,,,-99.99,,2013-03-08 09:42:00,
2013-03-08 03:52:00,37.0,30.0,30.02,East,90,8.0,-999.0,74,-99.99,,,-99.99,,2013-03-08 09:52:00,
2013-03-08 04:01:00,37.0,30.0,30.02,East,90,8.0,-999.0,74,-99.99,,,-99.99,,2013-03-08 10:01:00,
2013-03-08 04:11:00,37.0,30.0,30.02,East,90,8.0,-999.0,74,-99.99,,,-99.99,,2013-03-08 10:11:00,
2013-03-08 04:21:00,37.0,30.0,30.01,East,90,10.0,-999.0,74,-99.99,,,-99.99,,2013-03-08 10:21:00,
2013-03-08 04:31:00,37.0,30.0,30.01,East,90,10.0,-999.0,74,-99.99,,,-99.99,,2013-03-08 10:31:00,
2013-03-08 04:42:00,37.0,30.0,30.01,East,90,10.0,-999.0,74,-99.99,,,-99.99,,2013-03-08 10:42:00,
2013-03-08 04:52:00,37.0,30.0,30.01,East,100,10.0,-999.0,74,-99.99,,,-99.99,,2013-03-08 10:52:00,
2013-03-08 05:01:00,37.0,30.0,30.01,East,100,10.0,-999.0,74,-99.99,,,-99.99,,2013-03-08 11:01:00,
2013-03-08 05:11:00,37.0,30.0,30.01,East,100,10.0,-999.0,74,-99.99,,,-99.99,,2013-03-08 11:11:00,
2013-03-08 05:21:00,36.0,30.0,30.01,East,100,8.0,-999.0,80,-99.99,,,-99.99,,2013-03-08 11:21:00,
2013-03-08 05:32:00,36.0,30.0,30.01,East,100,9.0,-999.0,80,-99.99,,,-99.99,,2013-03-08 11:32:00,
2013-03-08 05:42:00,36.0,30.0,30.01,East,100,9.0,-999.0,80,-99.99,,,-99.99,,2013-03-08 11:42:00,
2013-03-08 05:52:00,36.0,30.0,30.01,ESE,110,9.0,-999.0,80,-99.99,,,-99.99,,2013-03-08 11:52:00,
2013-03-08 06:01:00,36.0,30.0,30.01,ESE,110,9.0,-999.0,80,-99.99,,,-99.99,,2013-03-08 12:01:00,
2013-03-08 06:11:00,36.0,30.0,30.01,ESE,110,9.0,-999.0,80,-99.99,,,-99.99,,2013-03-08 12:11:00,
2013-03-08 06:22:00,36.0,30.0,30.01,ESE,110,12.0,-999.0,80,-99.99,,,-99.99,,2013-03-08 12:22:00,
2013-03-08 06:32:00,36.0,30.0,30.01,East,100,10.0,16.0,80,-99.99,,,-99.99,,2013-03-08 12:32:00,
2013-03-08 06:43:00,36.0,30.0,30.01,East,100,10.0,16.0,80,-99.99,,,-99.99,,2013-03-08 12:43:00,
2013-03-08 06:53:00,36.0,30.0,30.01,East,100,10.0,16.0,80,-99.99,,,-99.99,,2013-03-08 12:53:00,
2013-03-08 07:01:00,36.0,30.0,30.01,East,100,10.0,16.0,80,-99.99,,,-99.99,,2013-03-08 13:01:00,
2013-03-08 07:11:00,36.0,30.0,30.01,East,100,10.0,16.0,80,-99.99,,,-99.99,,2013-03-08 13:11:00,
2013-03-08 07:21:00,37.0,30.0,30.01,ESE,110,10.0,-999.0,74,-99.99,,,-99.99,,2013-03-08 13:21:00,
2013-03-08 07:32:00,37.0,30.0,30.01,ESE,110,10.0,-999.0,74,-99.99,,,-99.99,,2013-03-08 13:32:00,
2013-03-08 07:42:00,37.0,30.0,30.01,ESE,110,10.0,-999.0,74,-99.99,,,-99.99,,2013-03-08 13:42:00,
2013-03-08 07:52:00,37.0,30.0,30.01,East,100,9.0,-999.0,74,-99.99,,,-99.99,,2013-03-08 13:52:00,
2013-03-08 08:02:00,37.0,30.0,30.01,East,100,9.0,-999.0,74,-99.99,,,-99.99,,2013-03-08 14:02:00,
2013-03-08 08:11:00,37.0,30.0,30.01,East,100,9.0,-999.0,74,-99.99,,,-99.99,,2013-03-08 14:11:00,
2013-03-08 08:22:00,39.0,32.0,30.01,ESE,110,9.0,-999.0,75,-99.99,,,-99.99,,2013-03-08 14:22:00,
2013-03-08 08:32:00,39.0,32.0,30.01,ESE,110,9.0,-999.0,75,-99.99,,,-99.99,,2013-03-08 14:32:00,
2013-03-08 08:42:00,39.0,32.0,30.01,ESE,110,9.0,-999.0,75,-99.99,,,-99.99,,2013-03-08 14:42:00,
2013-03-08 08:52:00,39.0,32.0,30.01,ESE,110,9.0,-999.0,75,-99.99,,,-99.99,,2013-03-08 14:52:00,
2013-03-08 09:02:00,39.0,32.0,30.01,ESE,110,9.0,-999.0,75,-99.99,,,-99.99,,2013-03-08 15:02:00,
2013-03-08 09:22:00,46.0,34.0,30.02,SE,130,8.0,-999.0,61,-99.99,,,-99.99,,2013-03-08 15:22:00,
2013-03-08 09:32:00,46.0,34.0,30.02,SE,130,10.0,-999.0,61,-99.99,,,-99.99,,2013-03-08 15:32:00,
2013-03-08 09:43:00,46.0,34.0,30.02,SE,130,10.0,-999.0,61,-99.99,,,-99.99,,2013-03-08 15:43:00,
2013-03-08 09:53:00,48.0,34.0,30.02,SE,140,14.0,18.0,57,-99.99,,,-99.99,,2013-03-08 15:53:00,
2013-03-08 10:01:00,48.0,34.0,30.02,SE,140,14.0,18.0,57,-99.99,,,-99.99,,2013-03-08 16:01:00,
2013-03-08 10:11:00,48.0,34.0,30.02,SE,140,14.0,18.0,57,-99.99,,,-99.99,,2013-03-08 16:11:00,
2013-03-08 10:21:00,48.0,34.0,30.02,SSE,150,10.0,-999.0,57,-99.99,,,-99.99,,2013-03-08 16:21:00,
2013-03-08 10:32:00,48.0,36.0,30.02,SE,140,13.0,-999.0,61,-99.99,,,-99.99,,2013-03-08 16:32:00,
2013-03-08 10:42:00,48.0,36.0,30.02,SE,140,13.0,-999.0,61,-99.99,,,-99.99,,2013-03-08 16:42:00,
2013-03-08 10:52:00,48.0,36.0,30.02,SE,140,13.0,-999.0,61,-99.99,,,-99.99,,2013-03-08 16:52:00,
2013-03-08 11:02:00,48.0,36.0,30.02,SE,140,13.0,-999.0,61,-99.99,,,-99.99,,2013-03-08 17:02:00,
2013-03-08 11:11:00,48.0,36.0,30.02,SE,140,13.0,-999.0,61,-99.99,,,-99.99,,2013-03-08 17:11:00,
2013-03-08 11:21:00,54.0,37.0,30.00,SE,140,14.0,17.0,54,-99.99,,,-99.99,,2013-03-08 17:21:00,
2013-03-08 11:32:00,54.0,37.0,30.00,SE,140,14.0,17.0,54,-99.99,,,-99.99,,2013-03-08 17:32:00,
2013-03-08 11:42:00,54.0,37.0,30.00,SE,140,14.0,17.0,54,-99.99,,,-99.99,,2013-03-08 17:42:00,
2013-03-08 11:52:00,54.0,37.0,30.00,SE,140,14.0,17.0,54,-99.99,,,-99.99,,2013-03-08 17:52:00,
2013-03-08 12:02:00,54.0,37.0,30.00,SE,140,14.0,17.0,54,-99.99,,,-99.99,,2013-03-08 18:02:00,
2013-03-08 12:22:00,59.0,39.0,29.97,SE,140,14.0,-999.0,47,-99.99,,,-99.99,,2013-03-08 18:22:00,
2013-03-08 12:32:00,59.0,39.0,29.97,SE,140,14.0,-999.0,47,-99.99,,,-99.99,,2013-03-08 18:32:00,
2013-03-08 12:42:00,59.0,39.0,29.97,SE,140,14.0,-999.0,47,-99.99,,,-99.99,,2013-03-08 18:42:00,
2013-03-08 12:52:00,61.0,41.0,29.96,SE,140,14.0,20.0,48,-99.99,,,-99.99,,2013-03-08 18:52:00,
2013-03-08 13:01:00,61.0,41.0,29.96,SE,140,14.0,20.0,48,-99.99,,,-99.99,,2013-03-08 19:01:00,
2013-03-08 13:11:00,61.0,41.0,29.96,SE,140,14.0,20.0,48,-99.99,,,-99.99,,2013-03-08 19:11:00,
2013-03-08 13:22:00,63.0,43.0,29.94,SSE,150,13.0,21.0,48,-99.99,,,-99.99,,2013-03-08 19:22:00,
2013-03-08 13:32:00,64.0,43.0,29.93,SE,140,16.0,22.0,45,-99.99,,,-99.99,,2013-03-08 19:32:00,
2013-03-08 13:42:00,64.0,43.0,29.93,SE,140,16.0,22.0,45,-99.99,,,-99.99,,2013-03-08 19:42:00,
2013-03-08 13:52:00,64.0,45.0,29.92,SSE,150,14.0,-999.0,48,-99.99,,,-99.99,,2013-03-08 19:52:00,
2013-03-08 14:01:00,64.0,45.0,29.92,SSE,150,14.0,-999.0,48,-99.99,,,-99.99,,2013-03-08 20:01:00,
2013-03-08 14:11:00,64.0,45.0,29.92,SSE,150,14.0,-999.0,48,-99.99,,,-99.99,,2013-03-08 20:11:00,
2013-03-08 14:21:00,66.0,45.0,29.90,SE,140,14.0,21.0,45,-99.99,,,-99.99,,2013-03-08 20:21:00,
2013-03-08 14:32:00,66.0,45.0,29.90,SE,140,14.0,21.0,45,-99.99,,,-99.99,,2013-03-08 20:32:00,
2013-03-08 14:42:00,66.0,45.0,29.90,SE,140,14.0,21.0,45,-99.99,,,-99.99,,2013-03-08 20:42:00,
2013-03-08 14:53:00,66.0,45.0,29.90,SE,140,14.0,21.0,45,-99.99,,,-99.99,,2013-03-08 20:53:00,
2013-03-08 15:02:00,66.0,45.0,29.90,SE,140,14.0,21.0,45,-99.99,,,-99.99,,2013-03-08 21:02:00,
2013-03-08 15:22:00,66.0,46.0,29.87,SE,140,22.0,28.0,48,-99.99,,,-99.99,,2013-03-08 21:22:00,
2013-03-08 15:33:00,64.0,46.0,29.87,SE,140,17.0,25.0,51,-99.99,,,-99.99,,2013-03-08 21:33:00,
2013-03-08 15:42:00,64.0,46.0,29.87,SE,140,17.0,25.0,51,-99.99,,,-99.99,,2013-03-08 21:42:00,
2013-03-08 15:52:00,66.0,46.0,29.87,SE,140,16.0,23.0,48,-99.99,,,-99.99,,2013-03-08 21:52:00,
2013-03-08 16:01:00,66.0,46.0,29.87,SE,140,16.0,23.0,48,-99.99,,,-99.99,,2013-03-08 22:01:00,
2013-03-08 16:11:00,66.0,46.0,29.87,SE,140,16.0,23.0,48,-99.99,,,-99.99,,2013-03-08 22:11:00,
2013-03-08 16:22:00,64.0,46.0,29.86,SSE,150,21.0,28.0,51,-99.99,,,-99.99,,2013-03-08 22:22:00,
2013-03-08 16:32:00,64.0,46.0,29.86,SSE,150,21.0,28.0,51,-99.99,,,-99.99,,2013-03-08 22:32:00,
2013-03-08 16:42:00,64.0,46.0,29.86,SSE,150,21.0,28.0,51,-99.99,,,-99.99,,2013-03-08 22:42:00,
2013-03-08 16:53:00,63.0,48.0,29.86,SE,130,15.0,22.0,59,-99.99,,,-99.99,,2013-03-08 22:53:00,
2013-03-08 17:01:00,63.0,48.0,29.86,SE,130,15.0,22.0,59,-99.99,,,-99.99,,2013-03-08 23:01:00,
2013-03-08 17:12:00,63.0,48.0,29.86,SE,130,15.0,22.0,59,-99.99,,,-99.99,,2013-03-08 23:12:00,
2013-03-08 17:21:00,63.0,48.0,29.85,SE,140,16.0,25.0,59,-99.99,,,-99.99,,2013-03-08 23:21:00,
2013-03-08 17:32:00,61.0,48.0,29.85,SE,140,16.0,27.0,63,-99.99,,,-99.99,,2013-03-08 23:32:00,
2013-03-08 17:42:00,61.0,48.0,29.85,SE,140,16.0,27.0,63,-99.99,,,-99.99,,2013-03-08 23:42:00,
2013-03-08 17:53:00,61.0,48.0,29.85,SE,140,16.0,27.0,63,-99.99,,,-99.99,,2013-03-08 23:53:00,
2013-03-08 18:02:00,61.0,48.0,29.85,SE,140,16.0,27.0,63,-99.99,,,-99.99,,2013-03-09 00:02:00,
2013-03-08 18:11:00,61.0,48.0,29.85,SE,140,16.0,27.0,63,-99.99,,,-99.99,,2013-03-09 00:11:00,
2013-03-08 18:21:00,59.0,48.0,29.86,SE,130,14.0,23.0,67,-99.99,,,-99.99,,2013-03-09 00:21:00,
2013-03-08 18:32:00,59.0,48.0,29.86,SE,130,14.0,23.0,67,-99.99,,,-99.99,,2013-03-09 00:32:00,
2013-03-08 18:42:00,59.0,48.0,29.86,SE,130,14.0,23.0,67,-99.99,,,-99.99,,2013-03-09 00:42:00,
2013-03-08 18:52:00,57.0,48.0,29.86,SE,140,13.0,21.0,71,-99.99,,,-99.99,,2013-03-09 00:52:00,
2013-03-08 19:01:00,57.0,48.0,29.86,SE,140,13.0,21.0,71,-99.99,,,-99.99,,2013-03-09 01:01:00,
2013-03-08 19:12:00,57.0,48.0,29.86,SE,140,13.0,21.0,71,-99.99,,,-99.99,,2013-03-09 01:12:00,
2013-03-08 19:21:00,57.0,48.0,29.85,SE,130,14.0,22.0,71,-99.99,,,-99.99,,2013-03-09 01:21:00,
2013-03-08 19:32:00,55.0,50.0,29.85,SE,130,9.0,-999.0,81,-99.99,,,-99.99,,2013-03-09 01:32:00,
2013-03-08 19:42:00,55.0,50.0,29.85,SE,130,9.0,-999.0,81,-99.99,,,-99.99,,2013-03-09 01:42:00,
2013-03-08 19:52:00,55.0,50.0,29.85,SE,130,12.0,-999.0,81,-99.99,,,-99.99,,2013-03-09 01:52:00,
2013-03-08 20:01:00,55.0,50.0,29.85,SE,130,12.0,-999.0,81,-99.99,,,-99.99,,2013-03-09 02:01:00,
2013-03-08 20:11:00,55.0,50.0,29.85,SE,130,12.0,-999.0,81,-99.99,,,-99.99,,2013-03-09 02:11:00,
2013-03-08 20:21:00,55.0,48.0,29.85,SE,140,12.0,-999.0,76,-99.99,,,-99.99,,2013-03-09 02:21:00,
2013-03-08 20:31:00,55.0,48.0,29.86,SE,140,14.0,-999.0,76,-99.99,,,-99.99,,2013-03-09 02:31:00,
2013-03-08 20:41:00,55.0,48.0,29.86,SE,140,14.0,-999.0,76,-99.99,,,-99.99,,2013-03-09 02:41:00,
2013-03-08 20:51:00,55.0,48.0,29.86,SE,140,14.0,-999.0,76,-99.99,,,-99.99,,2013-03-09 02:51:00,
2013-03-08 21:01:00,55.0,48.0,29.86,SE,140,14.0,-999.0,76,-99.99,,,-99.99,,2013-03-09 03:01:00,
2013-03-08 21:11:00,55.0,48.0,29.86,SE,140,14.0,-999.0,76,-99.99,,,-99.99,,2013-03-09 03:11:00,
2013-03-08 21:21:00,54.0,48.0,29.84,SE,130,17.0,23.0,81,-99.99,,,-99.99,,2013-03-09 03:21:00,
2013-03-08 21:32:00,54.0,46.0,29.83,SE,130,16.0,23.0,76,-99.99,,,-99.99,,2013-03-09 03:32:00,
2013-03-08 21:42:00,54.0,46.0,29.83,SE,130,16.0,23.0,76,-99.99,,,-99.99,,2013-03-09 03:42:00,
2013-03-08 21:52:00,54.0,46.0,29.83,SE,130,18.0,22.0,76,-99.99,,,-99.99,,2013-03-09 03:52:00,
2013-03-08 22:01:00,54.0,46.0,29.83,SE,130,18.0,22.0,76,-99.99,,,-99.99,,2013-03-09 04:01:00,
2013-03-08 22:11:00,54.0,46.0,29.83,SE,130,18.0,22.0,76,-99.99,,,-99.99,,2013-03-09 04:11:00,
2013-03-08 22:22:00,52.0,46.0,29.83,SE,130,14.0,20.0,81,-99.99,,,-99.99,,2013-03-09 04:22:00,
2013-03-08 22:32:00,52.0,46.0,29.83,SE,130,14.0,20.0,81,-99.99,,,-99.99,,2013-03-09 04:32:00,
2013-03-08 22:42:00,52.0,46.0,29.83,SE,130,14.0,20.0,81,-99.99,,,-99.99,,2013-03-09 04:42:00,
2013-03-08 22:52:00,52.0,46.0,29.83,SE,130,14.0,20.0,81,-99.99,,,-99.99,,2013-03-09 04:52:00,
2013-03-08 23:02:00,52.0,46.0,29.83,SE,130,14.0,20.0,81,-99.99,,,-99.99,,2013-03-09 05:02:00,
2013-03-08 23:22:00,52.0,46.0,29.82,SE,130,9.0,-999.0,81,-99.99,,,-99.99,,2013-03-09 05:22:00,
2013-03-08 23:32:00,52.0,46.0,29.82,ESE,120,10.0,-999.0,81,-99.99,,,-99.99,,2013-03-09 05:32:00,
2013-03-08 23:43:00,52.0,46.0,29.82,ESE,120,10.0,-999.0,81,-99.99,,,-99.99,,2013-03-09 05:43:00,
2013-03-08 23:53:00,52.0,46.0,29.82,ESE,120,10.0,-999.0,81,-99.99,,,-99.99,,2013-03-09 05:53:00,